TimePST,TemperatureF,Dew PointF,Humidity,Sea Level PressureIn,VisibilityMPH,Wind Direction,Wind SpeedMPH,Gust SpeedMPH,PrecipitationIn,Events,Conditions,WindDirDegrees,DateUTC
12:53 AM,55.0,50.0,83,30.18,7.0,Calm,Calm,-,N/A,,Unknown,0,2013-11-12 08:53:00
1:53 AM,55.9,50.0,80,30.20,7.0,Calm,Calm,-,N/A,,Unknown,0,2013-11-12 09:53:00
2:53 AM,57.0,46.9,69,30.20,10.0,North,3.5,-,N/A,,Unknown,10,2013-11-12 10:53:00
3:53 AM,55.0,48.9,80,30.24,8.0,NNW,3.5,-,N/A,,Unknown,330,2013-11-12 11:53:00
4:53 AM,55.0,48.9,80,30.26,7.0,Calm,Calm,-,N/A,,Unknown,0,2013-11-12 12:53:00
5:53 AM,55.0,48.9,80,30.27,8.0,NNE,6.9,-,N/A,,Unknown,20,2013-11-12 13:53:00
6:53 AM,55.0,48.9,80,30.27,10.0,Calm,Calm,-,N/A,,Unknown,0,2013-11-12 14:53:00
7:53 AM,55.9,48.0,75,30.26,9.0,East,8.1,-,N/A,,Unknown,90,2013-11-12 15:53:00
8:53 AM,57.9,48.9,72,30.25,10.0,East,11.5,-,N/A,,Unknown,100,2013-11-12 16:53:00
9:53 AM,62.1,48.9,62,30.25,10.0,ESE,4.6,-,N/A,,Mostly Cloudy,110,2013-11-12 17:53:00
10:53 AM,66.9,45.0,45,30.27,10.0,ENE,5.8,-,N/A,,Mostly Cloudy,70,2013-11-12 18:53:00
11:53 AM,69.1,46.9,45,30.25,10.0,West,6.9,-,N/A,,Partly Cloudy,280,2013-11-12 19:53:00
12:53 PM,69.1,46.9,45,30.23,10.0,West,6.9,-,N/A,,Partly Cloudy,270,2013-11-12 20:53:00
1:53 PM,71.1,46.0,41,30.21,10.0,West,6.9,-,N/A,,Clear,260,2013-11-12 21:53:00
2:53 PM,68.0,48.0,49,30.22,10.0,West,10.4,-,N/A,,Clear,270,2013-11-12 22:53:00
3:53 PM,66.9,48.9,52,30.21,10.0,West,8.1,-,N/A,,Clear,270,2013-11-12 23:53:00
4:53 PM,64.9,50.0,58,30.22,10.0,West,5.8,-,N/A,,Clear,280,2013-11-13 00:53:00
5:53 PM,62.1,48.9,62,30.24,10.0,West,8.1,-,N/A,,Clear,260,2013-11-13 01:53:00
6:53 PM,60.1,50.0,69,30.26,10.0,WNW,4.6,-,N/A,,Clear,300,2013-11-13 02:53:00
7:53 PM,57.9,50.0,75,30.26,10.0,North,6.9,-,N/A,,Clear,350,2013-11-13 03:53:00
8:53 PM,57.0,50.0,77,30.27,10.0,NW,3.5,-,N/A,,Clear,310,2013-11-13 04:53:00
9:53 PM,55.9,50.0,80,30.27,10.0,NW,4.6,-,N/A,,Clear,310,2013-11-13 05:53:00
10:53 PM,52.0,46.0,80,30.26,10.0,Calm,Calm,-,N/A,,Clear,0,2013-11-13 06:53:00
11:53 PM,52.0,46.9,83,30.26,10.0,WSW,3.5,-,N/A,,Clear,250,2013-11-13 07:53:00